Location: Newark
(36.1358°N, 115.1208°W)
Time: 03:56:25
(UTC+00:00)

ISS - Pass Details

Date: 21 January 2021
Orbit: 417 x 422 km, 51.6° (Epoch: 07 March)

Event Time Altitude Azimuth Distance (km) Brightness Sun altitude
Rises 02:58:44 0° 277° (W) 2,367 1.3 -24.8°
Reaches altitude 10° 03:01:46 10° 307° (NW) 1,506 -0.4 -25.4°
Enters shadow 03:02:54 13° 326° (NNW) 1,355 -0.9 -25.6°
